STARLINK-30063

decayed
NORAD ID: 55713 Int'l Des: 2023-026 Owner: SPXS Country: US Constellation: starlink
LEOCIRCULAR
Group

About STARLINK-30063

Description loading...

Altitude History

Altitude vs Time

uPlot chart will show altitude changes over time

Two-Line Element Set

1 55713U 23026U 24206.01982609 .07774033 27255+0 77492-2 0 9995
2 55713 42.9932 72.8383 0012127 260.9176 98.9988 16.17413156 81608
Epoch: Jul 24, 2024 • Age: 10129 hours

Current Status

Position data unavailable
Launch Date Feb 27, 2023
Age 2.5 years
Decay Date Jul 24, 2024
Type internet

Technical Details

Classification Payload
Mass 730.00 kg
Dry Mass 700.00 kg
Total Mass 730.00 kg
Length 0.30 m
Diameter 4.10 m
Span 29.00 m
Shape Box + pan
Manufacturer SPXS
Bus Type Starlink V2M
Phase Status Reentered
Owner/State SPXS/US

Large Constellations

Loading constellations...